GW3140 Weather Reports


Display with metric or nautical units.
time (UTC)temp
F
wind
direction
speed
MPH
gust
MPH
rain 1hr
in
rain 24hr
in
rain mn
in
humidity
%
barometer
mb
20260507142516 50 258 2.0 6.0 0.00 0.00 0.00 56 1012.5
20260507142014 50 339 1.0 4.0 0.00 0.00 0.00 58 1012.5
20260507141529 50 318 1.0 4.0 0.00 0.00 0.00 59 1012.5
20260507141014 49 0 0.0 0.0 0.00 0.00 0.00 65 1012.5
20260507140512 49 0 0.0 4.0 0.00 0.00 0.00 60 1012.7
20260507140035 49 0 0.0 4.0 0.00 0.00 0.00 64 1012.8
20260507135510 48 0 0.0 4.0 0.00 0.00 0.00 63 1012.8
20260507135010 48 0 0.0 5.0 0.00 0.00 0.00 64 1012.8
20260507134530 48 0 1.0 6.0 0.00 0.00 0.00 65 1012.7
20260507134012 48 0 1.0 6.0 0.00 0.00 0.00 64 1012.7
20260507133512 47 267 1.0 5.0 0.00 0.00 0.00 63 1012.7
20260507133030 47 252 1.0 4.0 0.00 0.00 0.00 65 1012.8
20260507132511 46 266 2.0 4.0 0.00 0.00 0.00 68 1012.9
20260507132013 46 233 1.0 3.0 0.00 0.00 0.00 68 1012.8
20260507131532 45 0 0.0 3.0 0.00 0.00 0.00 70 1012.9
20260507131011 44 0 0.0 1.0 0.00 0.00 0.00 71 1012.9
20260507130512 44 0 0.0 1.0 0.00 0.00 0.00 71 1012.9
20260507130035 43 0 0.0 0.0 0.00 0.00 0.00 72 1012.9
20260507125511 43 0 0.0 0.0 0.00 0.00 0.00 71 1012.8
20260507125014 42 0 0.0 0.0 0.00 0.00 0.00 72 1012.8
20260507124531 42 0 0.0 0.0 0.00 0.00 0.00 73 1012.8
20260507124011 42 0 0.0 0.0 0.00 0.00 0.00 72 1012.8
20260507123512 41 0 0.0 0.0 0.00 0.00 0.00 73 1012.8
20260507123032 41 0 0.0 0.0 0.00 0.00 0.00 73 1012.7
20260507122513 41 0 0.0 0.0 0.00 0.00 0.00 74 1012.8
20260507122016 40 0 0.0 0.0 0.00 0.00 0.00 74 1012.8
20260507121528 40 0 0.0 0.0 0.00 0.00 0.00 75 1012.7
20260507121012 40 0 0.0 0.0 0.00 0.00 0.00 75 1012.8
20260507120511 39 0 0.0 0.0 0.00 0.00 0.00 75 1012.8
20260507120030 39 0 0.0 0.0 0.00 0.00 0.00 76 1012.7
20260507115517 39 0 0.0 0.0 0.00 0.00 0.00 79 1012.6
20260507115013 38 0 0.0 0.0 0.00 0.00 0.00 78 1012.5
20260507114529 38 0 0.0 0.0 0.00 0.00 0.00 78 1012.5
20260507114011 38 0 0.0 0.0 0.00 0.00 0.00 77 1012.5
20260507113509 37 0 0.0 0.0 0.00 0.00 0.00 77 1012.4
20260507113029 37 0 0.0 0.0 0.00 0.00 0.00 78 1012.4
20260507112512 37 0 0.0 0.0 0.00 0.00 0.00 79 1012.5
20260507112012 37 0 0.0 0.0 0.00 0.00 0.00 79 1012.3
20260507111529 36 0 0.0 0.0 0.00 0.00 0.00 79 1012.3
20260507111012 36 0 0.0 0.0 0.00 0.00 0.00 79 1012.3
20260507110512 36 0 0.0 0.0 0.00 0.00 0.00 80 1012.2
20260507110028 36 0 0.0 0.0 0.00 0.00 0.00 80 1012.1
20260507105511 36 0 0.0 0.0 0.00 0.00 0.00 80 1012.1
20260507105010 35 0 0.0 0.0 0.00 0.00 0.00 79 1012.2
20260507104530 35 0 0.0 0.0 0.00 0.00 0.00 78 1012.1
20260507104014 35 0 0.0 0.0 0.00 0.00 0.00 78 1012.2
20260507103509 35 0 0.0 0.0 0.00 0.00 0.00 78 1012.3
20260507103031 35 0 0.0 0.0 0.00 0.00 0.00 79 1012.3
20260507102510 35 0 0.0 0.0 0.00 0.00 0.00 79 1012.2
20260507102012 35 0 0.0 0.0 0.00 0.00 0.00 79 1012.1
20260507101530 35 0 0.0 0.0 0.00 0.00 0.00 79 1012.2
20260507101011 35 0 0.0 0.0 0.00 0.00 0.00 78 1012.1
20260507100511 35 0 0.0 0.0 0.00 0.00 0.00 78 1012.1
20260507100031 35 0 0.0 0.0 0.00 0.00 0.00 78 1012.1
20260507095512 35 0 0.0 0.0 0.00 0.00 0.00 78 1012.1
20260507095013 35 0 0.0 0.0 0.00 0.00 0.00 77 1012.1
20260507094531 35 0 0.0 0.0 0.00 0.00 0.00 77 1012.1
20260507094010 35 0 0.0 0.0 0.00 0.00 0.00 76 1012.1
20260507093515 35 0 0.0 0.0 0.00 0.00 0.00 76 1012.2
20260507093029 35 0 0.0 0.0 0.00 0.00 0.00 76 1012.2
20260507092510 36 0 0.0 0.0 0.00 0.00 0.00 76 1012.3
20260507092011 36 0 0.0 0.0 0.00 0.00 0.00 75 1012.2
20260507091538 36 0 0.0 0.0 0.00 0.00 0.00 74 1012.2
20260507091016 36 0 0.0 0.0 0.00 0.00 0.00 74 1012.1
20260507090512 36 0 0.0 0.0 0.00 0.00 0.00 74 1012.2
20260507090035 36 0 0.0 0.0 0.00 0.00 0.00 73 1012.3
20260507085512 37 0 0.0 0.0 0.00 0.00 0.00 73 1012.3
20260507085014 37 0 0.0 0.0 0.00 0.00 0.00 73 1012.3
20260507084540 37 0 0.0 0.0 0.00 0.00 0.00 73 1012.4
20260507084009 37 0 0.0 0.0 0.00 0.00 0.00 73 1012.3
20260507083514 37 0 0.0 0.0 0.00 0.00 0.00 72 1012.3
20260507083028 37 0 0.0 0.0 0.00 0.00 0.00 71 1012.3
20260507082509 37 0 0.0 0.0 0.00 0.00 0.00 71 1012.3
20260507082011 38 0 0.0 0.0 0.00 0.00 0.00 70 1012.4
20260507081530 38 0 0.0 0.0 0.00 0.00 0.00 69 1012.4
20260507081015 38 0 0.0 0.0 0.00 0.00 0.00 69 1012.4
20260507080512 38 0 0.0 0.0 0.00 0.00 0.00 69 1012.4
20260507080030 38 0 0.0 1.0 0.00 0.00 0.00 69 1012.5
20260507075512 38 0 0.0 1.0 0.00 0.00 0.00 69 1012.7
20260507075012 38 0 0.0 1.0 0.00 0.00 0.00 69 1012.8
20260507074530 39 0 0.0 1.0 0.00 0.00 0.00 69 1012.8
20260507074028 39 0 0.0 1.0 0.00 0.00 0.00 68 1012.8
20260507073516 39 0 0.0 0.0 0.00 0.00 0.00 69 1012.7
20260507073038 39 0 0.0 0.0 0.00 0.00 0.00 68 1012.6
20260507072512 39 0 0.0 0.0 0.00 0.00 0.00 69 1012.7
20260507072012 39 0 0.0 2.0 0.00 0.00 0.00 69 1012.8
20260507071532 39 0 0.0 2.0 0.00 0.00 0.00 70 1012.7
20260507071011 39 0 0.0 2.0 0.00 0.00 0.00 71 1012.8
20260507070514 39 0 0.0 2.0 0.00 0.00 0.00 72 1012.8
20260507070041 39 0 0.0 1.0 0.00 0.00 0.00 74 1012.8
20260507065512 39 0 0.0 1.0 0.00 0.00 0.00 75 1012.8
20260507065012 39 0 0.0 0.0 0.00 0.00 0.00 77 1012.7
20260507064532 39 0 0.0 0.0 0.00 0.00 0.00 77 1012.8
20260507064014 39 0 0.0 0.0 0.00 0.00 0.00 77 1012.8
20260507063513 39 0 0.0 0.0 0.00 0.00 0.00 78 1012.8
20260507063034 39 0 0.0 0.0 0.00 0.00 0.00 77 1012.8
20260507062512 40 0 0.0 0.0 0.00 0.00 0.00 75 1012.8
20260507062014 40 0 0.0 0.0 0.00 0.00 0.00 75 1012.7
20260507061532 40 0 0.0 0.0 0.00 0.00 0.00 76 1012.6
20260507061012 40 0 0.0 0.0 0.00 0.00 0.00 75 1012.7
20260507060513 41 0 0.0 0.0 0.00 0.00 0.00 74 1012.7
20260507060033 41 0 0.0 0.0 0.00 0.00 0.00 74 1012.7
20260507055512 41 0 0.0 0.0 0.00 0.00 0.00 72 1012.7
20260507055011 41 0 0.0 0.0 0.00 0.00 0.00 72 1012.7
20260507054540 42 0 0.0 0.0 0.00 0.00 0.00 71 1012.7
20260507054017 42 0 0.0 0.0 0.00 0.00 0.00 71 1012.7
20260507053513 42 0 0.0 0.0 0.00 0.00 0.00 72 1012.7
20260507053030 42 0 0.0 0.0 0.00 0.00 0.00 71 1012.7
20260507052513 42 0 0.0 0.0 0.00 0.00 0.00 72 1012.8
20260507052014 42 0 0.0 0.0 0.00 0.00 0.00 70 1012.8
20260507051531 42 0 0.0 0.0 0.00 0.00 0.00 71 1012.9
20260507051012 43 0 0.0 0.0 0.00 0.00 0.00 69 1012.8
20260507050513 43 0 0.0 2.0 0.00 0.00 0.00 68 1012.7
20260507050042 43 0 0.0 2.0 0.00 0.00 0.00 68 1012.6
20260507045512 43 0 0.0 1.0 0.00 0.00 0.00 69 1012.5
20260507045013 43 0 0.0 0.0 0.00 0.00 0.00 68 1012.5
20260507044530 43 0 0.0 0.0 0.00 0.00 0.00 67 1012.6
20260507044012 43 0 0.0 3.0 0.00 0.00 0.00 67 1012.6
20260507043512 43 0 0.0 3.0 0.00 0.00 0.00 67 1012.6
20260507043030 43 0 0.0 0.0 0.00 0.00 0.00 67 1012.6
20260507042512 43 0 0.0 0.0 0.00 0.00 0.00 66 1012.7
20260507042012 43 0 0.0 0.0 0.00 0.00 0.00 67 1012.6
20260507041529 43 0 0.0 1.0 0.00 0.00 0.00 67 1012.7
20260507041012 43 0 0.0 1.0 0.00 0.00 0.00 67 1012.7
20260507040512 43 0 0.0 1.0 0.00 0.00 0.00 67 1012.8
20260507040031 42 0 0.0 0.0 0.00 0.00 0.00 68 1012.8
20260507035510 42 0 0.0 0.0 0.00 0.00 0.00 69 1012.8
20260507035013 42 0 0.0 0.0 0.00 0.00 0.00 68 1012.9
20260507034530 42 0 0.0 0.0 0.00 0.00 0.00 69 1012.9
20260507034011 42 0 0.0 0.0 0.00 0.00 0.00 69 1012.9
20260507033513 42 0 0.0 0.0 0.00 0.00 0.00 69 1013.0
20260507033030 42 0 0.0 0.0 0.00 0.00 0.00 70 1013.0
20260507032513 42 0 0.0 0.0 0.00 0.00 0.00 69 1013.0
20260507032009 42 0 0.0 0.0 0.00 0.00 0.00 69 1013.0
20260507031529 42 0 0.0 0.0 0.00 0.00 0.00 70 1013.1
20260507031011 43 0 0.0 0.0 0.00 0.00 0.00 70 1013.2
20260507030513 43 0 0.0 0.0 0.00 0.00 0.00 71 1013.3
20260507030031 43 0 0.0 0.0 0.00 0.00 0.00 68 1013.3
20260507025512 43 0 0.0 0.0 0.00 0.00 0.00 68 1013.2
20260507025009 43 0 0.0 0.0 0.00 0.00 0.00 69 1013.0
20260507024536 43 0 0.0 0.0 0.00 0.00 0.00 69 1013.1
20260507024012 43 0 0.0 0.0 0.00 0.00 0.00 69 1013.0
20260507023515 43 0 0.0 0.0 0.00 0.00 0.00 71 1013.1
20260507023030 43 0 0.0 0.0 0.00 0.00 0.00 72 1012.9
20260507022512 43 0 0.0 0.0 0.00 0.00 0.00 70 1013.0
20260507022013 43 0 0.0 0.0 0.00 0.00 0.00 70 1012.8
20260507021535 43 0 0.0 0.0 0.00 0.00 0.00 68 1012.9
20260507021013 43 0 0.0 0.0 0.00 0.00 0.00 68 1013.0
20260507020513 43 0 0.0 0.0 0.00 0.00 0.00 65 1013.1
20260507020030 43 0 0.0 0.0 0.00 0.00 0.00 65 1013.1
20260507015512 43 0 0.0 0.0 0.00 0.00 0.00 68 1013.1
20260507015015 44 0 0.0 0.0 0.00 0.00 0.00 68 1013.1
20260507014536 44 0 0.0 0.0 0.00 0.00 0.00 67 1013.0
20260507014011 44 0 0.0 0.0 0.00 0.00 0.00 67 1013.1
20260507013510 44 0 0.0 0.0 0.00 0.00 0.00 63 1013.1
20260507013036 44 0 0.0 0.0 0.00 0.00 0.00 62 1013.0
20260507012513 45 0 0.0 0.0 0.00 0.00 0.00 61 1013.1
20260507012016 45 0 0.0 0.0 0.00 0.00 0.00 62 1013.0
20260507011538 45 0 0.0 0.0 0.00 0.00 0.00 61 1013.1
20260507011014 45 0 0.0 0.0 0.00 0.00 0.00 62 1013.1
20260507010518 45 0 0.0 0.0 0.00 0.00 0.00 58 1013.1
20260507010041 45 0 0.0 0.0 0.00 0.00 0.00 58 1013.0
20260507005513 45 0 0.0 0.0 0.00 0.00 0.00 59 1013.1
20260507005012 45 0 0.0 0.0 0.00 0.00 0.00 53 1013.2
20260507004531 46 0 0.0 0.0 0.00 0.00 0.00 55 1013.3
20260507004014 46 0 0.0 0.0 0.00 0.00 0.00 55 1013.2
20260507003514 46 0 0.0 0.0 0.00 0.00 0.00 54 1013.2
20260507003029 46 0 0.0 0.0 0.00 0.00 0.00 55 1013.2
20260507002514 46 0 0.0 0.0 0.00 0.00 0.00 54 1013.2
20260507002015 46 0 0.0 0.0 0.00 0.00 0.00 53 1013.0
20260507001548 46 0 0.0 0.0 0.00 0.00 0.00 55 1012.8
20260507001014 47 0 0.0 0.0 0.00 0.00 0.00 54 1012.9
20260507000513 47 0 0.0 0.0 0.00 0.00 0.00 53 1012.8
20260507000036 47 0 0.0 0.0 0.00 0.00 0.00 54 1012.8
20260506235514 47 0 0.0 0.0 0.00 0.00 0.00 49 1012.8
20260506235012 47 0 0.0 0.0 0.00 0.00 0.00 52 1012.8
20260506234536 48 0 0.0 0.0 0.00 0.00 0.00 50 1012.8
20260506234015 48 0 0.0 1.0 0.00 0.00 0.00 49 1012.8
20260506233515 48 0 0.0 1.0 0.00 0.00 0.00 48 1012.8
20260506233030 48 0 0.0 3.0 0.00 0.00 0.00 49 1012.9
20260506232512 48 0 0.0 4.0 0.00 0.00 0.00 50 1012.9
20260506232011 48 0 0.0 4.0 0.00 0.00 0.00 49 1012.8
20260506231534 48 0 0.0 0.0 0.00 0.00 0.00 49 1013.0
20260506231015 48 0 0.0 1.0 0.00 0.00 0.00 49 1013.0
20260506230514 48 0 0.0 1.0 0.00 0.00 0.00 49 1013.1
20260506230032 48 0 0.0 3.0 0.00 0.00 0.00 49 1013.1
20260506225513 48 0 0.0 3.0 0.00 0.00 0.00 48 1013.1
20260506225013 48 0 0.0 1.0 0.00 0.00 0.00 50 1013.2
20260506224532 48 0 0.0 3.0 0.00 0.00 0.00 47 1013.1
20260506224012 49 0 0.0 3.0 0.00 0.00 0.00 48 1013.1
20260506223513 49 0 0.0 3.0 0.00 0.00 0.00 47 1013.1
20260506223032 49 0 0.0 3.0 0.00 0.00 0.00 47 1013.1
20260506222513 49 341 0.0 6.0 0.00 0.00 0.00 49 1013.1
20260506222013 49 0 2.0 6.0 0.00 0.00 0.00 48 1013.1
20260506221536 49 329 1.0 5.0 0.00 0.00 0.00 47 1013.1
20260506221013 49 330 2.0 5.0 0.00 0.00 0.00 48 1013.1
20260506220513 49 7 1.0 6.0 0.00 0.00 0.00 46 1013.1
20260506220032 49 351 2.0 6.0 0.00 0.00 0.00 46 1013.0
20260506215514 50 274 2.0 6.0 0.00 0.00 0.00 46 1012.8
20260506215014 50 278 2.0 6.0 0.00 0.00 0.00 47 1013.0
20260506214530 50 285 1.0 8.0 0.00 0.00 0.00 48 1012.9
20260506214013 49 306 3.0 8.0 0.00 0.00 0.00 46 1013.0
20260506213515 49 335 2.0 6.0 0.00 0.00 0.00 46 1012.9
20260506213037 49 297 2.0 9.0 0.00 0.00 0.00 48 1012.8
20260506212513 49 299 1.0 10.0 0.00 0.00 0.00 48 1012.6
20260506212014 49 289 2.0 10.0 0.00 0.00 0.00 45 1012.7
20260506211539 50 278 3.0 7.0 0.00 0.00 0.00 47 1012.7
20260506211013 50 334 2.0 7.0 0.00 0.00 0.00 42 1012.7
20260506210513 49 280 2.0 8.0 0.00 0.00 0.00 45 1012.7
20260506210040 49 337 2.0 8.0 0.00 0.00 0.00 45 1012.6
20260506205512 49 4 3.0 8.0 0.00 0.00 0.00 45 1012.5
20260506205013 49 340 3.0 8.0 0.00 0.00 0.00 49 1012.5
20260506204533 48 259 4.0 10.0 0.00 0.00 0.00 44 1012.6
20260506204011 49 336 4.0 10.0 0.00 0.00 0.00 45 1012.4
20260506203514 49 349 2.0 9.0 0.00 0.00 0.00 44 1012.4
20260506203034 49 342 3.0 10.0 0.00 0.00 0.00 45 1012.5
20260506202515 48 360 3.0 10.0 0.00 0.00 0.00 46 1012.6
20260506202015 48 277 3.0 10.0 0.00 0.00 0.00 47 1012.6
20260506201536 48 321 3.0 8.0 0.00 0.00 0.00 49 1012.6
20260506201014 48 272 3.0 8.0 0.00 0.00 0.00 52 1012.8
20260506200511 47 334 4.0 7.0 0.00 0.00 0.00 51 1012.8
20260506200032 46 326 2.0 7.0 0.00 0.00 0.00 52 1012.8
20260506195514 46 348 3.0 7.0 0.00 0.00 0.00 57 1013.1
20260506195016 45 285 3.0 7.0 0.00 0.00 0.00 57 1012.9
20260506194530 45 324 3.0 7.0 0.00 0.00 0.00 56 1012.8
20260506194012 45 321 3.0 9.0 0.00 0.00 0.00 57 1012.9
20260506193512 45 328 3.0 9.0 0.00 0.00 0.00 58 1012.8
20260506193043 44 318 3.0 7.0 0.00 0.00 0.00 58 1012.8
20260506192514 44 278 2.0 8.0 0.00 0.00 0.00 58 1012.7
20260506192014 45 303 2.0 11.0 0.00 0.00 0.00 59 1012.7
20260506191529 45 267 4.0 11.0 0.00 0.00 0.00 57 1012.8
20260506191014 45 268 2.0 9.0 0.00 0.00 0.00 58 1012.8
20260506190518 45 349 3.0 8.0 0.00 0.00 0.00 59 1012.8
20260506190032 45 337 3.0 9.0 0.00 0.00 0.00 58 1012.8
20260506185514 45 308 2.0 9.0 0.00 0.02 0.00 58 1013.0
20260506185014 45 275 3.0 9.0 0.00 0.02 0.00 62 1013.1
20260506184536 45 286 3.0 9.0 0.00 0.02 0.00 60 1013.1
20260506184013 45 315 4.0 9.0 0.00 0.02 0.00 58 1013.1
20260506183514 46 291 3.0 8.0 0.00 0.02 0.00 58 1012.9
20260506183032 45 327 3.0 11.0 0.00 0.02 0.00 57 1013.0
20260506182511 45 295 4.0 12.0 0.00 0.02 0.00 58 1013.1
20260506182017 45 309 3.0 12.0 0.00 0.02 0.00 58 1012.8
20260506181540 45 285 3.0 12.0 0.00 0.02 0.00 59 1012.7
20260506181013 45 328 4.0 9.0 0.00 0.02 0.00 59 1012.7
20260506180516 45 321 4.0 9.0 0.00 0.02 0.00 58 1012.7
20260506180032 45 268 3.0 10.0 0.00 0.02 0.00 61 1012.4
20260506175516 45 317 3.0 10.0 0.00 0.03 0.00 57 1012.4
20260506175012 46 314 5.0 12.0 0.00 0.03 0.00 56 1012.3
20260506174536 46 248 4.0 12.0 0.00 0.03 0.00 55 1012.2
20260506174016 47 287 3.0 10.0 0.00 0.03 0.00 54 1012.3
20260506173515 48 272 3.0 10.0 0.00 0.03 0.00 57 1012.4
20260506173048 48 272 4.0 10.0 0.00 0.03 0.00 56 1012.5
20260506172513 48 278 5.0 10.0 0.00 0.03 0.00 53 1012.4
20260506172015 49 299 3.0 8.0 0.00 0.03 0.00 54 1012.2
20260506171539 49 318 4.0 10.0 0.00 0.03 0.00 54 1012.2
20260506171017 49 330 3.0 10.0 0.00 0.03 0.00 58 1012.2
20260506170514 50 347 5.0 10.0 0.00 0.03 0.00 52 1012.2
20260506170044 50 296 4.0 10.0 0.00 0.03 0.00 54 1012.1
20260506165517 50 301 3.0 8.0 0.00 0.03 0.00 53 1012.1
20260506165012 50 285 3.0 10.0 0.00 0.03 0.00 53 1012.0
20260506164532 50 332 4.0 10.0 0.00 0.03 0.00 53 1012.1
20260506164015 50 280 3.0 9.0 0.00 0.03 0.00 55 1012.0
20260506163512 50 300 4.0 10.0 0.00 0.03 0.00 55 1012.1
20260506163035 50 323 3.0 10.0 0.00 0.03 0.00 56 1012.0
20260506162512 50 303 3.0 12.0 0.00 0.03 0.00 58 1011.9
20260506162015 50 303 4.0 12.0 0.00 0.03 0.00 60 1012.0
20260506161532 50 261 3.0 8.0 0.00 0.03 0.00 57 1011.9
20260506161016 50 309 3.0 8.0 0.00 0.03 0.00 59 1011.8
20260506160511 50 343 3.0 9.0 0.00 0.03 0.00 61 1011.9
20260506160037 50 344 4.0 9.0 0.00 0.03 0.00 59 1011.7
20260506155512 50 333 3.0 9.0 0.00 0.03 0.00 64 1011.8
20260506155012 50 283 3.0 10.0 0.00 0.03 0.00 60 1011.6
20260506154538 50 324 4.0 10.0 0.00 0.03 0.00 61 1011.6
20260506154015 50 283 3.0 11.0 0.00 0.03 0.00 63 1011.6
20260506153515 50 306 3.0 11.0 0.00 0.03 0.00 62 1011.5
20260506153031 50 292 3.0 8.0 0.00 0.03 0.00 64 1011.4
20260506152514 50 352 3.0 8.0 0.00 0.03 0.00 63 1011.5
20260506152013 50 323 2.0 8.0 0.00 0.03 0.00 65 1011.4
20260506151530 50 344 2.0 8.0 0.00 0.03 0.00 61 1011.4
20260506151014 50 330 2.0 9.0 0.00 0.03 0.00 65 1011.5
20260506150514 50 339 3.0 9.0 0.00 0.03 0.00 67 1011.4
20260506150032 49 281 3.0 9.0 0.00 0.03 0.00 66 1011.3
20260506145514 49 333 4.0 9.0 0.00 0.03 0.00 63 1011.1
20260506145012 49 318 2.0 5.0 0.00 0.03 0.00 66 1011.1
20260506144532 49 326 3.0 8.0 0.00 0.03 0.00 70 1010.9
20260506144013 48 335 3.0 8.0 0.00 0.03 0.00 69 1010.9
20260506143513 48 335 4.0 7.0 0.00 0.03 0.00 67 1010.8
20260506143030 48 356 3.0 7.0 0.00 0.03 0.00 74 1010.7